Location: Knobs
(40.8333°S, 175.2333°E)
Time: 02:32:16
(UTC+00:00)

Lacrosse 4 Rocket - Pass Details

Date: 12 June 2024
Orbit: 525 x 593 km, 68.0° (Epoch: 22 July)

Event Time Altitude Azimuth Distance (km) Brightness Sun altitude
Exits shadow 17:28:02 14° 168° (SSE) 1,651 3.7 -24.3°
Maximum altitude 17:30:17 20° 130° (SE) 1,345 3.7 -23.9°
Drops below altitude 10° 17:33:20 10° 82° (E) 1,836 5.1 -23.3°
Sets 17:35:59 0° 64° (ENE) 2,708 6.2 -22.8°
